EW3751 Weather Reports


Display with metric or nautical units.
time (UTC)temp
F
wind
direction
speed
MPH
gust
MPH
rain 1hr
in
rain 24hr
in
rain mn
in
humidity
%
barometer
mb
20221126131209 49 285 2.0 6.0 1.43 9.24 5.70 89 1027.9
20221126130706 48 285 1.0 6.0 1.43 9.25 5.70 89 1027.9
20221126130204 48 165 3.0 10.0 1.43 9.25 5.70 90 1027.9
20221126125704 48 315 1.0 10.0 1.43 9.26 4.99 91 1028.0
20221126125204 48 293 3.0 10.0 0.71 8.54 4.99 91 1028.1
20221126124705 48 173 4.0 11.0 0.71 8.55 4.99 91 1028.1
20221126123706 48 273 3.0 11.0 0.71 8.55 4.99 92 1028.2
20221126123204 48 253 3.0 12.0 0.71 8.55 4.99 92 1028.0
20221126122705 48 275 4.0 12.0 0.71 8.55 4.99 92 1028.1
20221126122217 48 263 3.0 12.0 0.00 7.84 4.28 92 1028.1
20221126121706 48 295 3.0 12.0 0.00 7.84 4.28 92 1028.1
20221126121211 48 285 3.0 12.0 0.00 7.84 4.28 92 1028.1
20221126120705 48 295 6.0 12.0 0.00 7.84 4.28 92 1028.1
20221126120220 48 233 3.0 12.0 0.00 7.84 4.28 92 1028.1
20221126115207 47 273 6.0 12.0 0.00 7.84 4.28 92 1028.1
20221126114208 47 263 6.0 11.0 0.00 7.84 4.28 91 1028.1
20221126113705 48 233 8.0 9.0 0.00 7.84 4.28 92 1027.9
20221126113216 48 265 4.0 11.0 0.00 7.84 4.28 92 1027.9
20221126112706 48 255 2.0 11.0 0.00 7.84 4.28 91 1027.9
20221126111705 48 255 2.0 11.0 0.00 7.84 4.28 90 1027.8
20221126111204 48 285 2.0 11.0 0.00 7.84 4.28 91 1027.8
20221126110705 48 223 4.0 11.0 0.00 7.84 4.28 90 1027.7
20221126110205 48 235 3.0 14.0 0.00 8.48 4.28 89 1027.6
20221126105704 48 255 4.0 14.0 0.00 8.48 4.28 90 1027.7
20221126105205 48 275 6.0 14.0 0.00 8.48 4.28 92 1027.7
20221126104705 47 245 7.0 14.0 0.00 8.48 4.28 92 1027.6
20221126104217 47 255 6.0 14.0 0.00 8.48 4.28 92 1027.6
20221126103723 47 233 8.0 14.0 0.00 8.48 4.28 94 1027.7
20221126103205 46 275 6.0 14.0 0.00 8.48 4.28 94 1027.7
20221126101705 46 253 6.0 10.0 0.00 8.48 4.28 96 1027.7
20221126101205 46 235 5.0 10.0 0.00 8.48 4.28 96 1027.5
20221126100205 46 275 3.0 10.0 0.00 9.10 4.28 96 1027.6
20221126095706 46 243 6.0 9.0 0.00 9.10 4.28 98 1027.4
20221126095204 46 235 4.0 9.0 0.00 9.11 4.28 100 1027.4
20221126094704 45 233 3.0 9.0 0.00 9.11 4.28 100 1027.4
20221126094204 44 245 2.0 9.0 0.00 9.11 4.28 100 1027.5
20221126093707 44 205 2.0 9.0 0.00 9.11 4.28 100 1027.5
20221126093205 44 245 7.0 9.0 0.00 9.11 4.28 100 1027.5
20221126092709 44 245 3.0 7.0 0.00 9.11 4.28 100 1027.5
20221126092205 44 253 2.0 7.0 0.00 9.11 4.28 100 1027.5
20221126091705 43 243 4.0 6.0 0.00 9.11 4.28 100 1027.4
20221126091205 43 263 3.0 6.0 0.00 9.11 4.28 100 1027.4
20221126090205 42 253 2.0 4.0 0.00 9.11 4.28 100 1027.2
20221126085709 42 225 3.0 3.0 0.00 9.11 4.28 100 1027.3
20221126084704 41 233 0.0 2.0 0.00 9.11 4.28 100 1027.1
20221126084204 40 183 0.0 2.0 0.00 9.11 4.28 100 1027.2
20221126083704 40 205 0.0 2.0 0.71 9.11 4.28 100 1027.2
20221126083205 40 163 1.0 2.0 0.71 9.11 4.28 100 1027.2
20221126082704 39 215 1.0 2.0 0.71 9.11 4.28 100 1027.1
20221126082205 39 205 1.0 3.0 0.71 9.11 4.28 100 1027.1
20221126081708 39 193 1.0 3.0 0.71 9.11 4.28 100 1027.1
20221126081204 39 185 1.0 4.0 0.71 9.11 4.28 100 1027.0
20221126080704 38 205 1.0 4.0 0.71 9.11 4.28 100 1027.1
20221126080205 38 263 0.0 4.0 0.71 9.11 4.28 100 1027.0
20221126075208 38 235 1.0 1.0 1.43 9.11 4.28 100 1027.0
20221126074706 38 203 0.0 2.0 1.43 9.11 4.28 100 1026.8
20221126074205 38 175 1.0 2.0 1.43 9.11 4.28 100 1026.8
20221126073205 38 193 1.0 3.0 0.71 8.40 3.56 100 1026.7
20221126072704 38 203 0.0 3.0 0.71 8.40 3.56 100 1026.6
20221126072205 38 183 1.0 3.0 1.43 8.40 3.56 100 1026.5
20221126071708 37 183 1.0 3.0 1.43 8.40 3.56 100 1026.4
20221126071204 37 175 2.0 3.0 1.43 8.40 3.56 100 1026.4
20221126070706 37 173 2.0 3.0 1.43 8.40 3.56 100 1026.3
20221126070224 37 173 2.0 2.0 1.43 8.40 3.56 100 1026.3
20221126065705 37 193 1.0 2.0 1.43 8.40 3.56 100 1026.2
20221126063206 37 233 0.0 2.0 0.71 7.69 2.85 100 1025.9
20221126062208 37 243 1.0 2.0 0.00 6.97 2.14 100 1025.8
20221126061708 38 233 0.0 3.0 0.00 6.97 2.14 100 1025.8
20221126061205 38 235 1.0 3.0 0.00 6.97 2.14 100 1025.7
20221126060726 38 263 0.0 3.0 0.00 7.59 2.14 100 1025.6
20221126055204 38 305 2.0 4.0 0.00 8.21 2.14 100 1025.6
20221126054710 39 265 2.0 2.0 0.00 8.21 2.14 100 1025.5
20221126053709 39 283 0.0 2.0 0.00 8.21 2.14 100 1025.4
20221126053205 39 263 1.0 2.0 0.00 8.21 2.14 100 1025.4
20221126052705 39 255 0.0 4.0 0.00 8.21 2.14 100 1025.3
20221126052208 39 303 0.0 4.0 0.00 8.21 2.14 100 1025.4
20221126051707 39 265 2.0 4.0 0.00 8.21 2.14 100 1025.4
20221126051204 40 255 1.0 3.0 0.00 8.21 2.14 100 1025.4
20221126050705 40 265 2.0 3.0 0.00 8.21 2.14 100 1025.3
20221126050205 40 263 0.0 3.0 0.00 8.21 2.14 100 1025.2
20221126045706 40 255 1.0 3.0 0.00 8.21 2.14 100 1025.2
20221126045206 41 245 1.0 2.0 0.00 8.21 2.14 100 1025.1
20221126044705 41 243 0.0 2.0 0.00 8.21 2.14 100 1025.1
20221126044204 41 285 0.0 3.0 0.00 8.21 2.14 100 1025.1
20221126043704 42 253 0.0 3.0 0.00 8.21 2.14 100 1025.1
20221126043204 42 275 0.0 3.0 0.00 8.21 2.14 100 1024.8
20221126042725 42 273 0.0 3.0 0.00 8.21 2.14 100 1024.8
20221126042205 42 235 1.0 3.0 0.00 8.21 2.14 100 1024.7
20221126040704 42 243 2.0 3.0 0.00 8.83 2.14 100 1024.6
20221126040205 43 255 2.0 6.0 0.00 8.83 2.14 100 1024.5
20221126035704 43 253 1.0 6.0 0.00 8.83 2.14 100 1024.5
20221126033707 43 273 2.0 6.0 0.00 8.83 2.14 100 1024.4
20221126033204 43 243 6.0 6.0 0.00 8.83 2.14 100 1024.4
20221126032707 42 265 2.0 6.0 0.00 8.83 2.14 100 1024.3
20221126032205 42 275 4.0 6.0 0.00 8.83 2.14 100 1024.2
20221126031704 43 263 1.0 6.0 0.00 8.83 2.14 100 1024.2
20221126031204 43 245 4.0 7.0 0.00 8.83 2.14 100 1024.1
20221126030705 43 275 3.0 7.0 0.00 8.83 2.14 100 1024.1
20221126030209 43 235 2.0 7.0 0.00 9.44 2.14 100 1024.0
20221126025705 43 263 2.0 7.0 0.00 9.44 2.14 100 1024.0
20221126025204 43 305 1.0 6.0 0.00 9.44 2.14 100 1023.9
20221126024709 43 273 3.0 6.0 0.00 9.44 2.14 100 1024.0
20221126024205 43 185 3.0 6.0 0.00 9.44 2.14 100 1023.7
20221126023705 43 243 4.0 6.0 0.00 9.44 2.14 100 1023.7
20221126023208 43 273 3.0 8.0 0.00 9.44 2.14 100 1023.7
20221126022705 43 273 3.0 8.0 0.00 9.44 2.14 99 1023.7
20221126022204 43 273 3.0 8.0 0.00 9.44 2.14 99 1023.7
20221126021705 44 263 2.0 8.0 0.00 9.44 2.14 99 1023.6
20221126020705 44 213 3.0 8.0 0.00 9.44 2.14 99 1023.4
20221126020230 44 283 4.0 8.0 0.00 9.44 2.14 99 1023.3
20221126015709 44 273 3.0 8.0 0.00 9.44 2.14 99 1023.3
20221126015204 44 265 2.0 6.0 0.00 9.44 2.14 99 1023.3
20221126014708 45 173 2.0 6.0 0.00 9.44 2.14 99 1023.2
20221126013704 45 235 3.0 6.0 0.00 9.44 2.14 99 1023.2
20221126013204 45 295 3.0 10.0 0.00 9.44 2.14 99 1023.0
20221126012705 45 255 1.0 10.0 0.00 9.44 2.14 99 1022.9
20221126012204 45 243 4.0 10.0 0.00 9.44 2.14 100 1022.9
20221126011733 45 263 2.0 10.0 0.00 9.44 2.14 100 1022.9
20221126011204 45 133 1.0 10.0 0.00 9.44 2.14 100 1022.8
20221126010704 45 215 2.0 10.0 0.00 9.44 2.14 100 1022.8
20221126010223 45 263 2.0 10.0 0.00 9.44 2.14 100 1022.7
20221126005205 46 255 5.0 10.0 0.00 9.44 2.14 100 1022.5
20221126004704 46 253 4.0 10.0 0.71 9.44 2.14 100 1022.5
20221126004207 46 265 4.0 10.0 0.71 9.44 2.14 100 1022.4
20221126003704 46 313 5.0 10.0 0.71 9.44 2.14 100 1022.4
20221126003214 46 235 4.0 10.0 0.71 9.44 2.14 100 1022.4
20221126002209 46 273 5.0 9.0 1.43 9.44 2.14 100 1022.2
20221126001706 46 275 5.0 9.0 1.43 9.44 2.14 100 1022.1
20221126001234 46 273 3.0 9.0 1.43 9.44 2.14 100 1022.0
20221126000706 46 255 7.0 9.0 2.14 9.44 2.14 100 1022.0
20221125235709 46 283 6.0 8.0 2.14 9.44 2.14 100 1021.8
20221125235205 46 273 1.0 8.0 1.43 8.73 1.43 100 1021.7
20221125234707 46 265 4.0 6.0 1.43 8.73 1.43 100 1021.8
20221125233705 46 215 2.0 6.0 1.43 8.73 1.43 100 1021.7
20221125233205 46 253 2.0 8.0 1.43 8.73 1.43 100 1021.5
20221125232731 46 273 6.0 8.0 1.43 8.73 1.43 100 1021.5
20221125232223 46 193 2.0 8.0 0.71 8.02 0.71 100 1021.5
20221125231208 46 193 2.0 8.0 0.71 7.31 0.00 100 1021.3
20221125230704 46 255 4.0 8.0 0.71 7.31 0.00 100 1021.3
20221125230205 45 283 4.0 8.0 0.71 7.31 7.31 100 1021.4
20221125225705 45 255 1.0 8.0 0.71 7.31 7.31 100 1021.2
20221125225208 45 253 3.0 8.0 0.71 7.31 7.31 100 1021.1
20221125224704 45 245 3.0 7.0 0.71 7.31 7.31 100 1021.0
20221125224207 45 203 1.0 7.0 0.71 7.31 7.31 100 1020.9
20221125223726 45 223 3.0 6.0 0.71 7.31 7.31 100 1021.1
20221125223216 45 233 2.0 8.0 0.71 7.31 7.31 100 1021.0
20221125222204 45 245 3.0 8.0 0.72 7.31 7.31 100 1020.8
20221125221708 45 225 5.0 8.0 0.72 7.31 7.31 100 1020.9
20221125221205 45 245 5.0 6.0 0.00 6.59 6.59 100 1020.8
20221125220705 45 263 2.0 6.0 0.00 6.59 6.59 100 1020.7
20221125220205 45 233 4.0 8.0 0.00 6.59 6.59 100 1020.6
20221125215704 45 243 3.0 8.0 0.00 6.59 6.59 100 1020.6
20221125215207 45 235 1.0 8.0 0.00 6.59 6.59 100 1020.5
20221125214705 45 225 3.0 7.0 0.00 6.59 6.59 100 1020.5
20221125214204 45 183 3.0 7.0 0.00 6.59 6.59 100 1020.4
20221125213708 45 235 4.0 6.0 0.01 6.59 6.59 100 1020.2
20221125213210 45 243 5.0 4.0 0.01 6.59 6.59 100 1020.3
20221125212710 45 205 2.0 4.0 0.01 6.59 6.59 100 1020.3
20221125212219 45 215 2.0 5.0 0.01 6.59 6.59 100 1020.1
20221125211705 45 205 3.0 5.0 0.01 6.59 6.59 100 1020.0
20221125210705 45 223 2.0 5.0 0.01 6.59 6.59 100 1019.9
20221125210205 45 253 2.0 7.0 0.02 6.59 6.59 100 1020.0
20221125205704 45 223 3.0 7.0 0.02 6.59 6.59 100 1019.8
20221125205205 45 233 2.0 7.0 0.02 6.59 6.59 100 1019.8
20221125204704 45 203 2.0 7.0 0.02 6.59 6.59 100 1019.6
20221125203709 45 213 1.0 7.0 0.01 6.59 6.59 100 1019.4
20221125203213 45 175 2.0 6.0 0.70 6.59 6.59 100 1019.5
20221125202706 45 243 2.0 6.0 0.70 6.58 6.58 100 1019.4
20221125202206 45 23 1.0 6.0 1.39 6.58 6.58 100 1019.4
20221125201706 45 293 6.0 5.0 1.39 6.58 6.58 100 1019.4
20221125201204 45 215 1.0 5.0 1.39 6.58 6.58 100 1019.2
20221125200705 45 223 1.0 5.0 1.39 6.57 6.57 100 1019.2
20221125200205 45 245 1.0 5.0 1.39 6.57 6.57 100 1019.2
20221125195205 44 235 2.0 5.0 1.39 6.57 6.57 100 1019.2
20221125194705 44 205 2.0 5.0 1.39 6.57 6.57 100 1019.1
20221125194204 44 195 2.0 5.0 1.39 6.57 6.57 100 1019.0
20221125193706 44 243 1.0 5.0 1.39 6.57 6.57 100 1018.9
20221125193205 44 203 3.0 6.0 0.69 5.88 5.88 100 1018.9
20221125192706 44 255 3.0 6.0 0.00 5.19 5.19 100 1018.9
20221125192205 44 243 3.0 6.0 0.00 5.19 5.19 100 1018.8
20221125191704 44 225 3.0 4.0 0.00 5.19 5.19 100 1018.7
20221125191205 44 195 2.0 4.0 0.00 5.19 5.19 100 1018.6
20221125190204 44 203 2.0 4.0 0.00 5.19 5.19 100 1018.4
20221125185204 44 185 2.0 4.0 0.00 5.19 5.19 99 1018.2
20221125184206 44 175 1.0 4.0 0.00 5.81 5.19 99 1018.1
20221125183715 44 183 1.0 4.0 0.69 5.81 5.19 99 1018.0
20221125183218 44 195 1.0 5.0 0.69 5.81 5.19 100 1018.1
20221125182704 45 203 2.0 5.0 0.69 5.81 5.19 99 1018.0
20221125182205 45 263 1.0 5.0 1.39 5.81 5.19 99 1018.0
20221125181706 45 223 3.0 5.0 1.39 5.81 5.19 99 1017.9
20221125181204 45 205 2.0 5.0 1.39 5.81 5.19 99 1017.9
20221125180704 45 263 2.0 5.0 1.39 5.81 5.19 100 1017.8
20221125180208 45 225 2.0 4.0 1.39 5.81 5.19 100 1017.7
20221125175705 45 195 1.0 4.0 1.39 5.81 5.19 100 1017.7
20221125175215 45 205 1.0 4.0 1.39 5.81 5.19 100 1017.7
20221125174734 45 215 3.0 4.0 1.39 5.81 5.19 100 1017.5
20221125174223 45 175 2.0 4.0 1.39 5.81 5.19 100 1017.5
20221125173734 45 183 2.0 4.0 0.69 5.11 4.50 100 1017.4
20221125172705 45 193 2.0 6.0 0.00 4.42 3.80 100 1017.2
20221125172205 45 235 2.0 6.0 0.00 4.42 3.80 100 1017.2
20221125171713 45 173 2.0 6.0 0.00 4.42 3.80 100 1017.2
20221125170708 45 245 6.0 4.0 0.00 4.42 3.80 100 1017.1
20221125170205 45 213 2.0 8.0 0.00 4.42 3.80 100 1017.0
20221125165705 45 255 2.0 8.0 0.00 4.42 3.80 100 1017.0
20221125165219 45 203 2.0 8.0 0.00 4.42 3.80 100 1016.8
20221125164715 45 205 2.0 8.0 0.00 4.42 3.80 100 1016.7
20221125164221 45 183 3.0 8.0 0.00 4.42 3.80 100 1016.8
20221125162714 45 243 2.0 8.0 0.00 4.42 3.80 100 1016.5
20221125162204 45 193 2.0 8.0 0.00 4.42 3.80 100 1016.4
20221125161705 45 195 2.0 8.0 0.00 4.42 3.80 100 1016.3
20221125161207 45 215 2.0 8.0 0.00 4.42 3.80 100 1016.2
20221125160705 45 215 3.0 8.0 0.00 4.42 3.80 100 1016.1
20221125160231 45 215 4.0 6.0 0.00 4.42 3.80 100 1016.1
20221125154705 45 213 2.0 6.0 0.00 4.42 3.80 100 1015.9
20221125154207 45 205 4.0 6.0 0.00 4.42 3.80 100 1015.9
20221125153705 45 235 2.0 6.0 0.00 4.42 3.80 100 1016.0
20221125153211 45 183 1.0 5.0 0.00 4.42 3.80 100 1015.9
20221125152705 45 195 2.0 5.0 0.00 4.42 3.80 100 1015.8
20221125152205 45 223 3.0 5.0 0.00 4.42 3.80 99 1015.8
20221125151205 45 193 2.0 5.0 0.01 4.42 3.80 100 1015.7
20221125145704 45 213 2.0 3.0 0.01 4.42 3.80 99 1015.6
20221125144733 45 193 2.0 3.0 0.02 4.42 3.80 99 1015.5
20221125144209 45 195 2.0 3.0 0.02 4.42 3.80 99 1015.5
20221125143708 45 205 1.0 3.0 0.02 4.42 3.80 99 1015.4
20221125143204 45 185 1.0 3.0 0.03 4.42 3.80 99 1015.3
20221125142705 45 203 1.0 2.0 0.02 4.41 3.80 99 1015.3
20221125142204 45 153 1.0 4.0 0.03 4.41 3.80 99 1015.2
20221125141708 45 165 2.0 4.0 0.03 4.41 3.80 99 1015.1
20221125141205 45 175 1.0 4.0 0.03 4.41 3.79 99 1015.1
20221125140705 45 163 1.0 4.0 0.03 4.41 3.79 99 1015.0
20221125140233 45 213 1.0 6.0 0.03 4.41 3.79 99 1015.0
20221125135704 45 233 4.0 6.0 0.03 4.40 3.78 99 1014.9
20221125135205 45 233 2.0 6.0 0.03 4.40 3.78 99 1014.9
20221125134205 45 195 3.0 6.0 0.03 4.40 3.78 99 1014.8
20221125133721 45 225 2.0 6.0 0.03 4.39 3.78 99 1014.9
20221125133205 45 275 2.0 7.0 0.02 4.39 3.77 99 1014.8
20221125132706 45 193 4.0 7.0 0.03 4.39 3.77 99 1014.8
20221125132209 45 203 3.0 7.0 0.02 4.39 3.77 99 1014.7
20221125131704 45 213 1.0 7.0 0.02 4.38 3.76 99 1014.7